Location: Saint Louis
(38.6272°N, 90.1978°W)
Time: 14:40:16
(UTC-05:00)

ISS - Pass Details

Date: 11 December 2013
Orbit: 402 x 404 km, 51.6° (Epoch: 28 May)

Event Time Altitude Azimuth Distance (km) Brightness Sun altitude
Rises 17:23:02 0° 215° (SW) 2,299 1.6 -8.4°
Reaches altitude 10° 17:25:09 10° 208° (SSW) 1,444 0.3 -8.8°
Maximum altitude 17:28:14 42° 136° (SE) 579 -2.7 -9.4°
Enters shadow 17:30:42 15° 68° (ENE) 1,209 -1.6 -9.8°
